Temp
-4 -5 -5 -5 -5 -5 -5 -5 -5 -4 -4 -4 -3 -3 -3 -3 -3 -2 -2 -1 -1 0
-4 -5 -5 -5 -5 -5 -5 -5 -5 -5 -5 -5 -5 -4 -4 -4 -3 -3 -3 -2 -2 -1
-5 -5 -5 -5 -5 -6 -6 -6 -5 -5 -5 -5 -5 -5 -5 -4 -4 -4 -3 -3 -3 -2
-5 -5 -6 -6 -6 -6 -6 -6 -6 -6 -6 -6 -6 -5 -5 -5 -5 -4 -4 -3 -3 -3
-6 -6 -6 -6 -6 -6 -6 -6 -6 -6 -6 -6 -6 -6 -6 -5 -5 -5 -4 -4 -3 -3
-6 -7 -7 -7 -7 -7 -7 -7 -7 -7 -7 -7 -6 -6 -6 -6 -6 -5 -5 -5 -4 -4
-7 -7 -7 -7 -7 -7 -7 -7 -7 -7 -7 -7 -7 -6 -6 -6 -6 -6 -5 -5 -5 -4
-7 -7 -8 -8 -8 -8 -8 -8 -7 -7 -7 -7 -7 -7 -6 -6 -6 -6 -6 -5 -5 -5
-8 -8 -8 -8 -8 -8 -8 -8 -8 -8 -8 -7 -7 -7 -6 -5 -5 -6 -6 -6 -5 -5
-8 -8 -8 -8 -8 -8 -8 -8 -8 -8 -8 -8 -7 -7 -6 -5 -5 -5 -5 -5 -5 -5
-9 -9 -9 -9 -9 -8 -8 -8 -8 -7 -7 -7 -7 -6 -5 -5 -5 -5 -5 -5 -4 -4
-9 -9 -9 -9 -8 -8 -8 -7 -7 -7 -7 -6 -6 -5 -5 -4 -4 -4 -4 -4 -4 -4
-10 -10 -9 -9 -8 -8 -7 -7 -6 -6 -6 -6 -6 -5 -4 -4 -4 -4 -4 -4 -4 -4
-10 -10 -9 -9 -8 -7 -7 -7 -7 -7 -6 -6 -5 -4 -4 -3 -3 -3 -3 -3 -4 -4
Height
868 864 860 856 851 846 842 838 835 831 828 824 821 819 816 812 809 807 804 802 802 801
863 859 854 849 844 839 835 830 826 823 819 816 812 810 807 804 801 799 797 794 793 791
858 853 848 843 837 831 826 822 818 814 810 806 803 800 798 794 791 790 788 786 784 782
851 846 841 836 830 824 818 813 808 804 800 796 793 790 787 784 782 780 778 777 776 773
845 839 834 828 822 817 809 804 799 794 789 785 782 779 776 773 771 769 767 766 765 763
838 832 825 819 812 806 800 793 788 784 778 773 770 767 764 762 759 757 755 755 754 752
831 824 817 809 802 797 791 783 777 772 765 760 756 753 750 748 745 743 741 740 740 739
823 816 808 800 793 786 779 772 766 759 752 747 743 738 736 733 730 728 726 725 724 724
816 808 799 791 783 775 767 760 752 745 739 732 727 723 719 717 714 711 709 706 707 709
809 800 790 782 773 763 755 747 739 731 724 716 710 706 702 700 698 694 691 691 692 694
802 792 782 773 762 752 744 734 724 716 708 699 692 688 684 681 678 675 673 674 677 680
796 785 774 763 752 741 731 720 711 702 693 685 675 670 665 661 658 655 653 656 659 663
789 779 767 754 742 731 721 709 699 690 681 670 659 650 642 639 637 634 635 639 642 646
782 772 759 746 733 721 710 700 690 679 667 657 646 632 620 613 615 615 617 621 626 629
Wind_Speed
30 27 27 27 29 29 29 29 30 30 30 29 29 28 30 32 31 28 28 27 26 25
32 33 34 34 33 32 33 33 32 32 33 33 32 31 30 30 30 30 31 30 30 29
33 34 36 37 37 37 38 36 36 35 35 34 34 33 32 32 31 31 32 32 31 30
34 35 35 36 37 38 39 39 39 37 37 36 36 35 34 34 34 34 34 33 33 34
34 35 35 36 38 38 40 40 39 39 39 38 38 36 36 36 35 34 34 34 33 35
34 35 36 37 38 39 39 41 41 40 40 40 39 38 38 38 38 37 37 37 36 37
36 37 38 39 40 39 39 41 42 41 43 42 42 42 40 39 40 40 40 39 39 39
38 39 39 40 40 41 40 41 42 43 43 43 43 42 40 40 41 41 42 42 42 41
39 39 40 41 42 42 43 43 43 43 44 44 44 44 45 46 42 40 40 43 42 42
39 40 42 42 43 44 44 44 44 44 43 45 46 47 47 46 46 43 42 42 41 39
40 42 44 44 44 45 45 44 44 44 43 45 46 48 49 48 48 45 45 44 44 41
42 44 45 45 46 46 45 44 44 43 43 43 46 48 50 50 45 42 44 44 43 44
43 44 44 47 46 46 43 42 39 42 42 44 48 50 52 51 44 40 39 39 41 44
44 44 45 46 44 42 42 40 38 40 40 41 43 48 51 49 45 38 32 34 33 35
Wind_Direction
326 317 313 309 306 302 299 297 297 295 293 291 289 285 284 281 281 280 279 277 274 273
321 316 312 309 306 302 299 297 296 292 290 288 286 284 281 277 275 274 273 272 273 270
312 311 307 305 301 299 297 296 294 292 290 287 284 281 279 276 272 269 268 267 268 267
308 305 301 298 296 295 295 294 292 290 288 285 282 279 276 272 270 267 266 263 262 263
304 302 299 296 295 294 292 292 290 289 286 283 280 277 273 271 267 265 264 263 261 260
304 302 299 298 296 295 293 291 289 286 283 281 279 276 272 269 268 264 261 260 258 258
305 305 302 300 298 295 293 290 288 285 282 279 277 273 271 267 264 262 260 257 255 254
307 305 304 301 299 297 294 290 288 286 282 279 275 272 269 265 261 258 257 255 252 251
308 307 305 303 301 299 296 293 290 285 282 279 275 274 272 268 264 257 250 249 249 247
310 308 306 305 303 300 297 294 289 284 280 276 273 274 273 269 265 259 252 249 249 246
311 310 308 307 302 300 297 293 289 286 281 276 273 274 273 269 263 257 252 248 246 244
313 310 308 305 303 301 299 295 291 287 285 281 277 276 274 269 262 255 250 247 244 241
312 309 307 305 304 302 299 296 299 296 292 286 284 280 274 267 259 250 245 242 242 242
313 311 308 306 305 304 306 304 305 300 296 293 290 293 287 272 255 248 238 233 234 234